PKMJ Airport Information

Runway Information
Runway 07 Length 7897 ft width 150 ft
Elevation 6 ft Threshold 0 ft Heading 76
Runway 25 Length 7897 ft Width 150 ft
Elevation 6 ft Threshold 0 ft Heading 256
Airport Frequencies
Type CTAF Name CTAF Frequency 123.6 MHZ
Type RDO Name MAJURO RDO Frequency 123.6 MHZ
Airport Navaids
Type NDB-DME Name Majuro Frequency 316 KHZ
Airport Weather Information & NOTAM
ADDS - METARS form results

(0203 UTC 21 January 2022)
Data provider http://aviationweather.gov/metar/data/
 
Forecast for: PKMJ (MAJURO WSO AIRPO, MH, MH)
Text: PKMJ 202357Z 2100/2124 07012KT P6SM VCSH SCT015 SCT050
Forecast period: 0000 UTC 21 January 2022 to 0000 UTC 22 January 2022
Forecast type: FROM: standard forecast or significant change
Winds: from the ENE (70 degrees) at 14 MPH (12 knots; 6.2 m/s)
Visibility: 6 or more miles (10+ km)
Ceiling: at least 12,000 feet AGL
Clouds: scattered clouds at 1500 feet AGL
scattered clouds at 5000 feet AGL
Weather: VCSH  (showers in vicinity)